• Processing (Info)

  • MPEC 2021-G130 : 2016 GE135

    The following Minor Planet Electronic Circular may be linked-to from your own Web pages, but must not otherwise be redistributed electronically.

    A form allowing access to any MPEC is at the bottom of this page.


    Read MPEC 2021-G129 Read MPEC 2021-G131


    M.P.E.C. 2021-G130                               Issued 2021 April 10, 21:57 UT
    
         The Minor Planet Electronic Circulars contain information on unusual
             minor planets and routine data on comets.  They are published
        on behalf of Division F of the International Astronomical Union by the
              Minor Planet Center, Smithsonian Astrophysical Observatory,
                              Cambridge, MA 02138, U.S.A.
    
                 Prepared using the Tamkin Foundation Computer Network
    
                                  MPC@CFA.HARVARD.EDU
                URL https://www.minorplanetcenter.net/    ISSN 1523-6714
    
                                   2016 GE135                                
    
    
                               Revision to MPEC 2016-G119                           
    
    Additional Observations:
         K16GD5E  C2021 03 22.51264115 04 38.159-09 11 53.54         21.77GVEG130F52
         K16GD5E  C2021 03 22.53684115 04 34.475-09 12 29.57         21.22GVEG130F52
         K16GD5E  C2021 03 22.54895015 04 32.640-09 12 47.87         22.61GVEG130F52
         K16GD5E  C2021 03 22.57685015 04 28.405-09 13 29.92         22.30GVEG130F52
         K16GD5E  C2021 04 06.53933114 21 51.924-14 50 25.25         21.72GVEG130F52
         K16GD5E  C2021 04 06.56504314 21 46.830-14 50 54.30         22.56GVEG130F52
         K16GD5E  C2021 04 10.48755614 09 22.828-16 00 49.26         22.30wUEG130F51
         K16GD5E  C2021 04 10.49875614 09 20.607-16 01 00.21         21.97wUEG130F51
         K16GD5E  C2021 04 10.50997814 09 18.368-16 01 11.38         22.33wUEG130F51
    
    Observer details:
    F51 Pan-STARRS 1, Haleakala.  Observers J. Bulger, T. Lowe, A. Schultz, M.
        Willman.  Measurers K. Chambers, S. Chastel, T. de Boer, L. Denneau, J.
        Fairlamb, H. Flewelling, M. Huber, C.-C. Lin, E. Magnier, Y. Ramanjooloo,
        R. Wainscoat, R. Weryk.  1.8-m Ritchey-Chretien + CCD.
    F52 Pan-STARRS 2, Haleakala.  Observers J. Bulger, K. Chambers, T. Dukes, T.
        Lowe, A. Schultz, M. Willman.  Measurers S. Chastel, M. Huber, Y.
        Ramanjooloo, R. Wainscoat, R. Weryk.  1.8-m Ritchey-Chretien + CCD.
    
    First and last observations above in comparison with prediction:
    Residuals in seconds of arc (or two decimals in degrees), reference and Delta-T
    210322 F52 2.97+ 2.98+    210410 F51 3.84+ 2.60+    MPO374806   +2.22 days
    
    Orbital elements:
    2016 GE135                                               Earth MOID = 0.1095 AU
    Epoch 2020 Dec. 17.0 TT = JDT 2459200.5                 Veres
    M 358.33657              (2000.0)            P               Q
    n   0.59481391     Peri.   78.24489     -0.15960349     -0.98318886
    a   1.4002813      Node    21.55694     +0.78537919     -0.18089579
    e   0.3310576      Incl.   13.96856     +0.59808549     -0.02482685
    P   1.66           H   22.9           G   0.15           U   3
    Residuals in seconds of arc
    160330 F51  0.1+  0.0     160405 H01  0.1+  0.2-    160410 F51  0.1-  0.1-
    160330 F51  0.3-  0.1+    160405 H01  0.2-  0.0     160410 F51  0.1+  0.0
    160330 F51  0.1-  0.3+    160405 F51  0.1-  0.1-    160410 F51  0.2+  0.1-
    160404 G96  0.2+  0.1+    160405 F51  0.0   0.0     160410 F51  0.1+  0.2+
    160404 G96  0.3-  0.1+    160405 F51  0.1-  0.1-    160415 H21  0.3-  0.0
    160404 G96  0.2+  0.1+    160405 F51  0.0   0.0     160415 H21  0.4-  0.2-
    160404 G96  0.1-  0.0     160405 F51  0.2+  0.2+    160415 H21  0.0   0.2+
    160404 G96  0.1-  0.2-    160405 F51  0.1+  0.0     210322 F52  0.2-  0.3-
    160404 G96  0.2-  0.1+    160405 F51  0.1+  0.0     210322 F52  0.3-  0.1-
    160404 G96  0.3-  0.1+    160405 F51  0.1+  0.1+    210322 F52  0.1-  0.3-
    160404 G96  0.2+  0.0     160408 474  0.3+  0.1-    210322 F52  0.1+  0.7-
    160404 I52  0.8-  0.2-    160408 474  0.0   0.9-    210406 F52  0.4+  0.2+
    160404 I52  0.3+  0.1+    160408 474  0.6+  1.0-    210406 F52  0.5+  0.2+
    160404 I52  0.3+  0.1-    160410 F51  0.0   0.1-    210410 F51  0.1-  0.0
    160405 H01  0.0   0.1+    160410 F51  0.2-  0.0     210410 F51  0.0   0.1+
    160405 H01  0.3-  0.0     160410 F51  0.1+  0.0     210410 F51  0.1-  0.0
    
    Ephemeris:
    2016 GE135               a,e,i = 1.40, 0.33, 14                  q = 0.9367
    Date    TT    R. A. (2000) Decl.     Delta      r    Elong.  Phase     V
    2021 03 11    15 26 16.1 -04 19 41   0.3581  1.2085   119.1    45.9    22.8
    ...
    2021 03 26    14 55 53.9 -10 37 13   0.3487  1.2849   140.2    29.8    22.5
    ...
    2021 04 03    14 32 54.5 -13 39 11   0.3546  1.3253   152.9    20.1    22.3
    ...
    2021 04 09    14 14 05.4 -15 35 12   0.3663  1.3552   162.4    12.9    22.1
    2021 04 10    14 10 55.5 -15 52 25   0.3689  1.3602   164.0    11.7    22.1
    2021 04 11    14 07 46.2 -16 08 59   0.3717  1.3651   165.4    10.6    22.1
    ...
    2021 04 17    13 49 24.1 -17 34 44   0.3930  1.3944   172.4     5.4    22.0
    ...
    2021 04 25    13 27 54.1 -18 55 09   0.4328  1.4325   168.4     8.1    22.4
    ...
    2021 05 10    13 01 15.4 -20 14 44   0.5383  1.5006   150.1    19.6    23.4
    
    A. U. Tomatic                (C) Copyright 2021 MPC           M.P.E.C. 2021-G130
    


    Read MPEC 2021-G129 Read MPEC 2021-G131


    MPEC number:

    Enter an MPEC number in one of the following forms:

    • 1997-B01 (the full form)
    • J97B01 (the packed version of the full form)
    • B01 (the abbreviated form)